[Date Prev][Date Next][Thread Prev][Thread Next] - [Date Index][Thread Index][Author Index]
2 Line ISS Keps 3-17
- Subject: [sarex] 2 Line ISS Keps 3-17
- From: "Dave Larsen PhD" <doc@xxxxxxxxxxx>
- Date: Wed, 16 Mar 2005 18:58:23 -0800
ISS
1 25544U 98067A 05076.06016204 .00025126 00000-0 20045-3 0 291
2 25544 051.6478 012.2331 0003745 200.5714 339.1663 15.70978766361190
----
Via the sarex mailing list at AMSAT.ORG courtesy of AMSAT-NA.
To unsubscribe, send "unsubscribe sarex" to Majordomo@amsat.org
AMSAT Home